Regional Weather Roundup
Issued by NWS

Home | Current Version | Previous Version | Text Only | Print | Product List | Glossary On
Versions: 1 2 3 4 5 6 7 8 9 10 11 12 13 14 15 16 17 18 19 20 21 22 23 24 25 26 27 28 29 30 31 32 33 34 35 36 37 38 39 40 41 42 43 44 45 46 47 48 49 50
000
ASUS46 KPQR 222110
RWROR

OREGON REGIONAL WEATHER ROUNDUP
NATIONAL WEATHER SERVICE PORTLAND OR
200 PM PDT FRI MAY 22 2015

NOTE: "FAIR" INDICATES FEW OR NO CLOUDS BELOW 12,000 FEET WITH
NO SIGNIFICANT WEATHER AND/OR OBSTRUCTIONS TO VISIBILITY.

ORZ001>013-222200-
NORTHWEST OREGON


CITY           SKY/WX    TMP DP  RH WIND       PRES   REMARKS
ASTORIA        CLOUDY    54  50  86 W9        30.07S FOG
NEWPORT        CLOUDY    54  52  94 NW6       30.13R FOG
PORTLAND       LGT RAIN  59  52  77 S5        30.05R
VANCOUVER WA   CLOUDY    58  50  75 S5        30.04R
SCAPPOOSE      CLOUDY    60  51  72 CALM      30.03S
HILLSBORO      CLOUDY    59  52  77 S5        30.03S
AURORA         LGT RAIN  57  53  86 SE3       30.05S
MCMINNVILLE    CLOUDY    60  52  74 SW6       30.05R
SALEM          CLOUDY    60  52  74 W5        30.04S
CORVALLIS      CLOUDY    63  52  67 N9        30.06S
EUGENE         CLOUDY    63  50  62 CALM      30.05F
$$

ORZ021-028-222200-
SOUTHWEST OREGON


CITY           SKY/WX    TMP DP  RH WIND       PRES   REMARKS
NORTH BEND     CLOUDY    57  54  88 NW8       30.12S
BROOKINGS      MOSUNNY   63  56  78 NW10      30.06S
ROSEBURG       CLOUDY    65  49  56 NW10      30.05S
SEXTON SUMMIT  CLOUDY    51  50  96 CALM      30.05S
MEDFORD        CLOUDY    67  54  63 W3        29.99F
$$

ORZ014>016-041-222200-
COLUMBIA GORGE


CITY           SKY/WX    TMP DP  RH WIND       PRES   REMARKS
TROUTDALE      CLOUDY    59  51  75 CALM      30.03S
THE DALLES     CLOUDY    69  49  48 NW25G33   29.90S
$$

ORZ029>031-041-044-049-050-061>064-502-503-505>511-222200-
EASTERN OREGON


CITY           SKY/WX    TMP DP  RH WIND       PRES   REMARKS
REDMOND        MOSUNNY   64  52  64 VRB5      29.92F
BEND           MOSUNNY   63  48  59 CALM      29.94F
PRINEVILLE     MOSUNNY   64  52  63 VRB6G12   29.92F
KLAMATH FALLS  CLOUDY    58  48  69 W13       29.98F
LAKEVIEW       CLOUDY    59  45  58 NW3       29.97F
HERMISTON      MOSUNNY   76  55  48 NW8       29.83F
PENDLETON      CLOUDY    69  54  58 W14       29.85F
JOHN DAY       PTSUNNY   64  52  66 N8        29.90S
MEACHAM        CLOUDY    59  53  80 VRB3      29.93R
LA GRANDE      CLOUDY    61  46  59 W20G28    29.85R THUNDER
BAKER CITY     PTSUNNY   70  49  47 VRB5      29.86F
BURNS          MOSUNNY   65  48  54 MISG      29.91F
ROME             N/A     63  45  51 SW13      29.87F
ONTARIO        SUNNY     73  52  47 E5        29.83F
$$



USA.gov is the U.S. government's official web portal to all federal, state and local government web resources and services.